Hourly Data Report for January 26, 2004

All times are specified in Local Standard Time (LST). Add 1 hour to adjust for Daylight Saving Time where and when it is observed.

SHERBROOKE A
QUEBEC

45°26'00.000" N
71°41'00.000" W
241.40 m
7028124
71610
YSC

Download Data

Hourly Data (January 2004)
Hourly Data Report for January 26, 2004
TIME Temp Definition
°C
Dew Point Temp Definition
°C
Rel Hum Definition
%
Wind Dir Definition
10's deg

Wind Spd Definition
km/h
Visibility Definition
km
Stn Press Definition
kPa
Hmdx Definition


Wind Chill Definition


Weather Definition


00:00 -34.4 -40.1 56   0 15.0 99.65      
01:00 -33.3 -38.7 58   0 15.0 99.70      
02:00 -34.6 -40.6 54   0 15.0 99.80      
03:00 -35.9 -41.7 55 6 4 15.0 99.90   -41  
04:00 -36.0 -42.0 54   0 15.0 99.97      
05:00 -36.3 -41.5 59 15 4 15.0 100.04   -41  
06:00 -36.2 -42.3 53 22 4 15.0 100.10   -41  
07:00 -35.0 -40.9 55 25 4 15.0 100.15   -40  
08:00 -33.4 -39.5 54   0 24.1 100.22     Clear
09:00 -30.1 -35.6 59   0 24.1 100.24     Clear
10:00 -27.0 -33.2 56 28 6 24.1 100.25   -33 Clear
11:00 -24.9 -32.6 49 27 13 24.1 100.21   -34 Mainly Clear
12:00 -23.5 -32.4 44 27 7 24.1 100.16   -30 Mainly Clear
13:00 -22.5 -32.0 42 27 13 24.1 100.13   -31 Mainly Clear
14:00 -21.2 -31.6 39 27 15 24.1 100.11   -31 Mainly Clear
15:00 -20.6 -31.5 37 26 11 24.1 100.10   -28 Mainly Clear
16:00 -21.1 -31.6 38 29 6 24.1 100.02   -26 Mainly Clear
17:00 -22.6 -32.5 40 27 7 24.1 100.07   -29 Mostly Cloudy
18:00 -24.0 -33.3 42 31 6 15.0 100.12   -30  
19:00 -26.7 -34.2 49 9 4 15.0 100.11   -31  
20:00 -28.1 -34.4 55 8 6 15.0 100.08   -34  
21:00 -28.3 -35.0 53 8 4 15.0 100.02   -33  
22:00 -29.2 -34.6 60 11 4 15.0 99.97   -34  
23:00 -29.4 -35.1 58 11 4 15.0 99.96   -34  

Notes on Data Quality.

Legend

  • E = Estimated
  • M = Missing
  • NA = Not Available
Date modified: